Flag for U.S.A. Weather past 2 weeks in Compton, California, U.S.A.

Now
70 °F

Overcast.


Feels Like: 72 °F
Forecast: 67 / 78 °F
Wind: No wind

Location: Hawthorne Municipal Airport

Current Time: Sep 19, 2014 at 7:41:57 AM

Latest Report: Sep 19, 2014 at 6:53 AM


Visibility: 10 mi

Pressure: 29.88 "Hg

Humidity: 76%

Dew point: 62 °F

Location of ComptonLocation

Historic Weather in Compton — Graph

°F

Compton temperature yesterday

Maximum temperature yesterday: 78 °F (at 12:53 PM)
Minimum temperature yesterday: 67 °F (at 6:53 AM)
Average temperature yesterday: 72 °F

Past Weeks' High & Low Weather Summary

 TemperatureHumidityPressure
High94 °F (Sep 16, 10:53 AM)87% (Sep 6, 3:53 AM)29.93 "Hg (Sep 6, 3:53 AM)
Low67 °F (Sep 6, 3:53 AM)30% (Sep 17, 3:53 PM)29.68 "Hg (Sep 13, 6:53 PM)
Average76 °F66%29.80 "Hg
* Reported Sep 4 6:53 AM — Sep 19 6:53 AM, Compton, Weather by CustomWeather, © 2014

Note: Actual official high and low records may vary slightly from our data, if they occured in-between our weather recording intervals... More about our weather records

Advertising

Compton weather history for previous 24 hours

 ConditionsComfort  
Time TempWeatherWind HumidityBarometerVisibility
6:53 AM
Sep 19
70 °FOvercast.No wind76%29.88 "Hg10 mi
5:53 AM70 °FOvercast.No wind76%29.87 "Hg10 mi
4:53 AM69 °FOvercast.No wind79%29.87 "Hg10 mi
3:53 AM69 °FPassing clouds.3 mph81%29.87 "Hg10 mi
2:53 AM68 °FPassing clouds.5 mph84%29.87 "Hg10 mi
1:53 AM69 °FPassing clouds.5 mph81%29.87 "Hg10 mi
12:53 AM70 °FClear.7 mph79%29.86 "Hg10 mi
11:53 PM
Sep 18
70 °FClear.6 mph73%29.85 "Hg10 mi
10:53 PM71 °FClear.5 mph76%29.85 "Hg10 mi
9:53 PM71 °FClear.8 mph73%29.85 "Hg10 mi
8:53 PM71 °FClear.10 mph73%29.84 "Hg10 mi
7:53 PM72 °FScattered clouds.9 mph68%29.83 "Hg10 mi
7:04 PM72 °FScattered clouds.10 mph76%29.83 "Hg10 mi
5:53 PM74 °FOvercast.10 mph74%29.81 "Hg10 mi
4:53 PM75 °FPartly sunny.15 mph74%29.81 "Hg10 mi
3:53 PM76 °FPassing clouds.14 mph69%29.82 "Hg10 mi
3:00 PM77 °FSunny.10 mph64%29.83 "Hg10 mi
1:53 PM76 °FSunny.10 mph67%29.85 "Hg10 mi
12:53 PM78 °FSunny.15 mph64%29.87 "Hg10 mi
11:53 AM76 °FPassing clouds.9 mph67%29.88 "Hg10 mi
11:04 AM76 °FSunny.17 mph60%29.89 "Hg10 mi
10:57 AM76 °FSunny.14 mph60%29.89 "Hg1 mi
9:53 AM72 °FSunny.12 mph68%29.88 "Hg10 mi
8:53 AM71 °FSunny.6 mph73%29.88 "Hg10 mi
7:53 AM69 °FSunny.No wind81%29.86 "Hg10 mi
Weather by CustomWeather, © 2014

See weather overviewHow to use our weather pages